Powrót do katalogu

STARLINK-32194

AktywnyŁącznośćVLEO
NORAD 60315·PAYLOAD·🇺🇸 United States

Wystrzelony Jul 28, 2024 z Vandenberg Space Force Base

Loading…

Następne Przeloty (najbliższe 24 godziny)

TLE

ŚwieżeSource: CelesTrak SupGP

Epoka: Sep 14, 2026, 22:45 UTC

1 60315C 24133Q   26257.94840278 -.00055409  00000+0 -16371-2 0  2573
2 60315  53.1558 135.4426 0001164  97.4451 219.6328 15.34417715    11

Śledź STARLINK-32194 w czasie rzeczywistym z AllMySat

Download on the App Store